This demonstration page uses our WeatherBlox Daily Observations layout. Learn more.

Left ArrowRight Arrow

36.19886, -115.1175

Hourly Observations for November 21, 2022

Temp ( °F °C ) Dew Point ( °F °C ) Humidity (%) Winds ( mph kmh ) Pressure ( in mb ) Visibility ( mi km ) Precip ( " mm )
12:53 am 00:53 Clear 43 6.1 10 -12.2 25 25 WNW 7 11 30.28 1025 10 16 0.00 0.00
1:53 am 01:53 Clear 41 5 12 -11.1 30 30 W 3 6 30.28 1026 10 16 0.00 0.00
2:53 am 02:53 Clear 40 4.4 11 -11.7 30 30 WNW 6 9 30.27 1025 10 16 0.00 0.00
3:53 am 03:53 Clear 37 2.8 11 -11.7 33 33 Calm 30.28 1026 10 16 0.00 0.00
4:53 am 04:53 Clear 36 2.2 12 -11.1 37 37 NW 6 9 30.29 1026 10 16 0.00 0.00
5:53 am 05:53 Clear 38 3.3 12 -11.1 34 34 Calm 30.31 1026 10 16 0.00 0.00
6:53 am 06:53 Sunny 35 1.7 12 -11.1 38 38 Calm 30.33 1027 10 16 0.00 0.00
7:53 am 07:53 Sunny 43 6.1 14 -10 30 30 WNW 3 6 30.34 1028 10 16 0.00 0.00
8:53 am 08:53 Sunny 48 8.9 10 -12.2 21 21 SE 5 7 30.35 1028 10 16 0.00 0.00
9:53 am 09:53 Sunny 52 11.1 10 -12.2 18 18 SE 3 6 30.34 1027 10 16 0.00 0.00
10:53 am 10:53 Sunny 55 12.8 11 -11.7 17 17 SE 3 6 30.31 1027 10 16 0.00 0.00
11:53 am 11:53 Sunny 58 14.4 11 -11.7 15 15 Calm 30.28 1025 10 16 0.00 0.00
12:53 pm 12:53 Sunny 60 15.6 10 -12.2 14 14 Calm 30.25 1025 10 16 0.00 0.00
1:53 pm 13:53 Sunny 60 15.6 9 -12.8 13 13 Calm 30.24 1024 10 16 0.00 0.00
2:53 pm 14:53 Sunny 61 16.1 10 -12.2 13 13 Calm 30.23 1024 10 16 0.00 0.00
3:53 pm 15:53 Sunny 60 15.6 10 -12.2 14 14 S 3 6 30.23 1024 10 16 0.00 0.00
4:53 pm 16:53 Clear 58 14.4 11 -11.7 15 15 Calm 30.24 1024 10 16 0.00 0.00
5:53 pm 17:53 Clear 52 11.1 13 -10.6 21 21 WNW 5 7 30.24 1024 10 16 0.00 0.00
6:53 pm 18:53 Clear 49 9.4 15 -9.4 25 25 WNW 7 11 30.26 1025 10 16 0.00 0.00
7:53 pm 19:53 Clear 48 8.9 16 -8.9 27 27 NW 6 9 30.25 1024 10 16 0.00 0.00
8:53 pm 20:53 Clear 46 7.8 16 -8.9 29 29 WNW 6 9 30.25 1025 10 16 0.00 0.00
9:53 pm 21:53 Clear 45 7.2 16 -8.9 31 31 W 5 7 30.25 1024 10 16 0.00 0.00
10:53 pm 22:53 Clear 45 7.2 15 -9.4 29 29 WSW 6 9 30.24 1024 10 16 0.00 0.00
11:53 pm 23:53 Clear 42 5.6 14 -10 31 31 WNW 6 9 30.24 1024 10 16 0.00 0.00

Powered by AerisWeather